Time,TemperatureF,DewpointF,PressureIn,WindDirection,WindDirectionDegrees,WindSpeedMPH,WindSpeedGustMPH,Humidity,HourlyPrecipIn,Conditions,Clouds,dailyrainin,SoftwareType,DateUTC
2013-03-13 00:00:00,58.3,52.8,30.06,NW,319,0.0,1.0,82,0.00,,,0.28,Wunderground v.1.13,2013-03-13 04:00:00,
2013-03-13 00:02:00,58.3,52.8,30.06,NW,319,0.0,1.0,82,0.00,,,0.28,Wunderground v.1.13,2013-03-13 04:02:00,
2013-03-13 00:08:00,58.4,52.9,30.06,NW,319,0.0,0.0,82,0.00,,,0.28,Wunderground v.1.13,2013-03-13 04:08:00,
2013-03-13 00:10:00,58.4,52.9,30.06,NNW,338,0.0,0.0,82,0.00,,,0.28,Wunderground v.1.13,2013-03-13 04:10:00,
2013-03-13 00:16:00,58.5,52.7,30.06,NW,317,0.0,1.0,81,0.00,,,0.28,Wunderground v.1.13,2013-03-13 04:16:00,
2013-03-13 00:22:00,58.6,52.8,30.06,NW,323,0.0,1.0,81,0.00,,,0.28,Wunderground v.1.13,2013-03-13 04:22:00,
2013-03-13 00:28:00,58.6,52.8,30.06,NW,321,0.0,1.0,81,0.00,,,0.28,Wunderground v.1.13,2013-03-13 04:28:00,
2013-03-13 00:30:00,58.6,52.8,30.07,NNW,329,0.0,1.0,81,0.00,,,0.28,Wunderground v.1.13,2013-03-13 04:30:00,
2013-03-13 00:36:00,58.7,52.9,30.07,NNW,329,0.0,1.0,81,0.00,,,0.28,Wunderground v.1.13,2013-03-13 04:36:00,
2013-03-13 00:42:00,58.7,52.5,30.06,NNW,330,1.0,1.0,80,0.00,,,0.00,Wunderground v.1.13,2013-03-13 04:42:00,
2013-03-13 00:48:00,58.7,52.5,30.06,NNW,328,2.0,2.0,80,0.00,,,0.00,Wunderground v.1.13,2013-03-13 04:48:00,
2013-03-13 00:54:00,58.7,52.5,30.06,NNW,331,1.0,3.0,80,0.00,,,0.00,Wunderground v.1.13,2013-03-13 04:54:00,
2013-03-13 01:00:00,58.7,52.5,30.06,NW,323,1.0,1.0,80,0.00,,,0.00,Wunderground v.1.13,2013-03-13 05:00:00,
2013-03-13 01:06:00,58.7,52.5,30.06,NNW,332,0.0,0.0,80,0.00,,,0.00,Wunderground v.1.13,2013-03-13 05:06:00,
2013-03-13 01:12:00,58.6,52.4,30.07,NNW,333,0.0,0.0,80,0.00,,,0.00,Wunderground v.1.13,2013-03-13 05:12:00,
2013-03-13 01:18:00,58.6,52.4,30.06,NW,326,0.0,9.0,80,0.00,,,0.00,Wunderground v.1.13,2013-03-13 05:18:00,
2013-03-13 01:24:00,58.6,52.1,30.06,NW,326,0.0,9.0,79,0.00,,,0.00,Wunderground v.1.13,2013-03-13 05:24:00,
2013-03-13 01:30:00,58.5,52.4,30.06,NW,326,0.0,9.0,80,0.00,,,0.00,Wunderground v.1.13,2013-03-13 05:30:00,
2013-03-13 01:36:00,58.4,52.3,30.06,NW,326,0.0,9.0,80,0.00,,,0.00,Wunderground v.1.13,2013-03-13 05:36:00,
2013-03-13 01:42:00,58.3,52.2,30.06,NW,326,0.0,9.0,80,0.00,,,0.00,Wunderground v.1.13,2013-03-13 05:42:00,
2013-03-13 01:48:00,58.2,52.1,30.06,NW,326,0.0,9.0,80,0.00,,,0.00,Wunderground v.1.13,2013-03-13 05:48:00,
2013-03-13 01:54:00,58.2,52.1,30.06,NW,326,0.0,9.0,80,0.00,,,0.00,Wunderground v.1.13,2013-03-13 05:54:00,
2013-03-13 02:00:00,58.2,52.1,30.07,NW,326,0.0,9.0,80,0.00,,,0.00,Wunderground v.1.13,2013-03-13 06:00:00,
2013-03-13 02:06:00,58.1,52.0,30.07,NW,326,0.0,0.0,80,0.00,,,0.00,Wunderground v.1.13,2013-03-13 06:06:00,
2013-03-13 02:12:00,58.0,51.9,30.06,NW,326,0.0,0.0,80,0.00,,,0.00,Wunderground v.1.13,2013-03-13 06:12:00,
2013-03-13 02:18:00,57.9,51.4,30.06,NNW,329,0.0,0.0,79,0.00,,,0.00,Wunderground v.1.13,2013-03-13 06:18:00,
2013-03-13 02:24:00,58.0,51.5,30.07,North,355,0.0,0.0,79,0.00,,,0.00,Wunderground v.1.13,2013-03-13 06:24:00,
2013-03-13 02:30:00,58.1,51.6,30.06,NNW,345,1.0,3.0,79,0.00,,,0.00,Wunderground v.1.13,2013-03-13 06:30:00,
2013-03-13 02:36:00,58.2,51.4,30.06,NW,323,1.0,1.0,78,0.00,,,0.00,Wunderground v.1.13,2013-03-13 06:36:00,
2013-03-13 02:42:00,58.3,51.5,30.06,North,355,1.0,1.0,78,0.00,,,0.00,Wunderground v.1.13,2013-03-13 06:42:00,
2013-03-13 02:48:00,58.4,51.2,30.06,North,11,1.0,1.0,77,0.00,,,0.00,Wunderground v.1.13,2013-03-13 06:48:00,
2013-03-13 02:54:00,58.5,51.0,30.06,North,355,1.0,1.0,76,0.00,,,0.00,Wunderground v.1.13,2013-03-13 06:54:00,
2013-03-13 03:00:00,58.4,50.9,30.06,North,355,0.0,0.0,76,0.00,,,0.00,Wunderground v.1.13,2013-03-13 07:00:00,
2013-03-13 03:06:00,58.4,51.2,30.06,NNE,24,0.0,0.0,77,0.00,,,0.00,Wunderground v.1.13,2013-03-13 07:06:00,
2013-03-13 03:12:00,58.4,51.2,30.06,NNE,17,0.0,0.0,77,0.00,,,0.00,Wunderground v.1.13,2013-03-13 07:12:00,
2013-03-13 03:18:00,58.4,51.2,30.06,NW,323,0.0,10.0,77,0.00,,,0.00,Wunderground v.1.13,2013-03-13 07:18:00,
2013-03-13 03:24:00,58.4,51.2,30.06,NNW,346,1.0,1.0,77,0.00,,,0.00,Wunderground v.1.13,2013-03-13 07:24:00,
2013-03-13 03:30:00,58.4,51.2,30.06,North,355,1.0,10.0,77,0.00,,,0.00,Wunderground v.1.13,2013-03-13 07:30:00,
2013-03-13 03:36:00,58.3,51.1,30.06,North,355,1.0,1.0,77,0.00,,,0.00,Wunderground v.1.13,2013-03-13 07:36:00,
2013-03-13 03:42:00,58.2,51.4,30.06,North,360,0.0,10.0,78,0.00,,,0.00,Wunderground v.1.13,2013-03-13 07:42:00,
2013-03-13 03:48:00,58.2,51.0,30.06,NNW,345,0.0,10.0,77,0.00,,,0.00,Wunderground v.1.13,2013-03-13 07:48:00,
2013-03-13 03:54:00,58.1,50.9,30.06,North,350,1.0,1.0,77,0.00,,,0.00,Wunderground v.1.13,2013-03-13 07:54:00,
2013-03-13 04:00:00,58.1,50.6,30.06,NNW,347,0.0,10.0,76,0.00,,,0.00,Wunderground v.1.13,2013-03-13 08:00:00,
2013-03-13 04:08:00,58.1,50.2,30.06,NNW,346,0.0,0.0,75,0.00,,,0.00,Wunderground v.1.13,2013-03-13 08:08:00,
2013-03-13 04:14:00,58.0,50.1,30.06,North,355,0.0,0.0,75,0.00,,,0.00,Wunderground v.1.13,2013-03-13 08:14:00,
2013-03-13 04:20:00,58.0,49.8,30.06,NNW,348,0.0,6.0,74,0.00,,,0.00,Wunderground v.1.13,2013-03-13 08:20:00,
2013-03-13 04:26:00,58.1,49.9,30.06,NNE,17,0.0,6.0,74,0.00,,,0.00,Wunderground v.1.13,2013-03-13 08:26:00,
2013-03-13 04:32:00,58.0,49.4,30.06,North,349,0.0,6.0,73,0.00,,,0.00,Wunderground v.1.13,2013-03-13 08:32:00,
2013-03-13 04:38:00,58.0,49.0,30.06,NNW,335,0.0,6.0,72,0.00,,,0.00,Wunderground v.1.13,2013-03-13 08:38:00,
2013-03-13 04:44:00,58.0,49.0,30.06,NNW,337,0.0,6.0,72,0.00,,,0.00,Wunderground v.1.13,2013-03-13 08:44:00,
2013-03-13 04:50:00,58.0,49.0,30.06,NNW,348,0.0,6.0,72,0.00,,,0.00,Wunderground v.1.13,2013-03-13 08:50:00,
2013-03-13 04:56:00,58.0,49.0,30.07,NNW,344,0.0,6.0,72,0.00,,,0.00,Wunderground v.1.13,2013-03-13 08:56:00,
2013-03-13 05:02:00,58.1,49.1,30.07,North,350,1.0,6.0,72,0.00,,,0.00,Wunderground v.1.13,2013-03-13 09:02:00,
2013-03-13 05:08:00,58.1,49.1,30.07,NNW,336,1.0,5.0,72,0.00,,,0.00,Wunderground v.1.13,2013-03-13 09:08:00,
2013-03-13 05:14:00,58.1,49.1,30.07,NNW,342,1.0,1.0,72,0.00,,,0.00,Wunderground v.1.13,2013-03-13 09:14:00,
2013-03-13 05:20:00,58.1,49.5,30.07,NNW,342,0.0,5.0,73,0.00,,,0.00,Wunderground v.1.13,2013-03-13 09:20:00,
2013-03-13 05:26:00,58.0,49.8,30.07,NNW,342,0.0,5.0,74,0.00,,,0.00,Wunderground v.1.13,2013-03-13 09:26:00,
2013-03-13 05:32:00,58.0,49.8,30.07,NNW,345,0.0,5.0,74,0.00,,,0.00,Wunderground v.1.13,2013-03-13 09:32:00,
2013-03-13 05:38:00,58.0,49.8,30.08,NNW,344,0.0,5.0,74,0.00,,,0.00,Wunderground v.1.13,2013-03-13 09:38:00,
2013-03-13 05:44:00,58.0,50.1,30.08,NNW,336,1.0,5.0,75,0.00,,,0.00,Wunderground v.1.13,2013-03-13 09:44:00,
2013-03-13 05:50:00,58.0,50.1,30.08,NNW,336,1.0,5.0,75,0.00,,,0.00,Wunderground v.1.13,2013-03-13 09:50:00,
2013-03-13 05:58:00,57.8,50.3,30.09,NNW,338,0.0,5.0,76,0.00,,,0.00,Wunderground v.1.13,2013-03-13 09:58:00,
2013-03-13 06:04:00,57.7,50.2,30.09,NNW,338,0.0,5.0,76,0.00,,,0.00,Wunderground v.1.13,2013-03-13 10:04:00,
2013-03-13 06:10:00,57.6,50.4,30.09,NNW,337,1.0,4.0,77,0.00,,,0.00,Wunderground v.1.13,2013-03-13 10:10:00,
2013-03-13 06:16:00,57.6,50.1,30.09,North,350,1.0,6.0,76,0.00,,,0.00,Wunderground v.1.13,2013-03-13 10:16:00,
2013-03-13 06:22:00,57.6,49.7,30.10,NNW,340,1.0,6.0,75,0.00,,,0.00,Wunderground v.1.13,2013-03-13 10:22:00,
2013-03-13 06:28:00,57.5,49.3,30.10,NNW,343,1.0,6.0,74,0.00,,,0.00,Wunderground v.1.13,2013-03-13 10:28:00,
2013-03-13 06:34:00,57.5,48.9,30.10,NNW,347,1.0,6.0,73,0.00,,,0.00,Wunderground v.1.13,2013-03-13 10:34:00,
2013-03-13 06:40:00,57.4,48.4,30.10,North,10,1.0,6.0,72,0.00,,,0.00,Wunderground v.1.13,2013-03-13 10:40:00,
2013-03-13 06:46:00,57.4,48.1,30.11,North,355,1.0,6.0,71,0.00,,,0.00,Wunderground v.1.13,2013-03-13 10:46:00,
2013-03-13 06:52:00,57.3,48.0,30.11,North,9,1.0,6.0,71,0.00,,,0.00,Wunderground v.1.13,2013-03-13 10:52:00,
2013-03-13 06:58:00,57.3,48.0,30.11,North,5,1.0,6.0,71,0.00,,,0.00,Wunderground v.1.13,2013-03-13 10:58:00,
2013-03-13 07:04:00,57.2,47.9,30.12,North,11,1.0,6.0,71,0.00,,,0.00,Wunderground v.1.13,2013-03-13 11:04:00,
2013-03-13 07:10:00,57.2,47.5,30.12,North,5,1.0,4.0,70,0.00,,,0.00,Wunderground v.1.13,2013-03-13 11:10:00,
2013-03-13 07:16:00,57.1,47.4,30.12,NNE,17,1.0,6.0,70,0.00,,,0.00,Wunderground v.1.13,2013-03-13 11:16:00,
2013-03-13 07:22:00,57.1,47.0,30.12,North,349,2.0,6.0,69,0.00,,,0.00,Wunderground v.1.13,2013-03-13 11:22:00,
2013-03-13 07:28:00,57.0,46.9,30.13,North,360,2.0,6.0,69,0.00,,,0.00,Wunderground v.1.13,2013-03-13 11:28:00,
2013-03-13 07:34:00,57.0,46.5,30.13,North,11,2.0,9.0,68,0.00,,,0.00,Wunderground v.1.13,2013-03-13 11:34:00,
2013-03-13 07:40:00,56.9,46.4,30.14,NNE,28,1.0,6.0,68,0.00,,,0.00,Wunderground v.1.13,2013-03-13 11:40:00,
2013-03-13 07:46:00,56.9,46.8,30.14,NNE,27,1.0,6.0,69,0.00,,,0.00,Wunderground v.1.13,2013-03-13 11:46:00,
2013-03-13 07:52:00,56.8,46.7,30.14,North,355,1.0,3.0,69,0.00,,,0.00,Wunderground v.1.13,2013-03-13 11:52:00,
2013-03-13 07:58:00,56.7,46.6,30.14,North,355,1.0,6.0,69,0.00,,,0.00,Wunderground v.1.13,2013-03-13 11:58:00,
2013-03-13 08:04:00,56.7,46.6,30.14,NNW,345,2.0,6.0,69,0.00,,,0.00,Wunderground v.1.13,2013-03-13 12:04:00,
2013-03-13 08:10:00,56.8,46.3,30.14,NNW,344,3.0,3.0,68,0.00,,,0.00,Wunderground v.1.13,2013-03-13 12:10:00,
2013-03-13 08:16:00,56.8,46.3,30.14,North,355,3.0,7.0,68,0.00,,,0.00,Wunderground v.1.13,2013-03-13 12:16:00,
2013-03-13 08:22:00,56.8,46.3,30.14,North,360,3.0,7.0,68,0.00,,,0.00,Wunderground v.1.13,2013-03-13 12:22:00,
2013-03-13 08:28:00,57.0,46.5,30.14,North,351,2.0,7.0,68,0.00,,,0.00,Wunderground v.1.13,2013-03-13 12:28:00,
2013-03-13 08:34:00,57.2,46.3,30.15,NNE,32,1.0,7.0,67,0.00,,,0.00,Wunderground v.1.13,2013-03-13 12:34:00,
2013-03-13 08:40:00,57.5,46.6,30.15,NNW,348,1.0,7.0,67,0.00,,,0.00,Wunderground v.1.13,2013-03-13 12:40:00,
2013-03-13 08:46:00,57.6,46.7,30.16,NW,321,3.0,7.0,67,0.00,,,0.00,Wunderground v.1.13,2013-03-13 12:46:00,
2013-03-13 08:52:00,57.6,46.7,30.16,NNE,18,3.0,7.0,67,0.00,,,0.00,Wunderground v.1.13,2013-03-13 12:52:00,
2013-03-13 08:58:00,57.9,46.2,30.16,North,355,2.0,7.0,65,0.00,,,0.00,Wunderground v.1.13,2013-03-13 12:58:00,
2013-03-13 09:04:00,58.2,46.1,30.16,North,9,2.0,7.0,64,0.00,,,0.00,Wunderground v.1.13,2013-03-13 13:04:00,
2013-03-13 09:10:00,58.6,46.5,30.17,North,11,1.0,5.0,64,0.00,,,0.00,Wunderground v.1.13,2013-03-13 13:10:00,
2013-03-13 09:16:00,58.6,45.6,30.17,NNE,15,2.0,13.0,62,0.00,,,0.00,Wunderground v.1.13,2013-03-13 13:16:00,
2013-03-13 09:22:00,58.7,45.3,30.17,NW,323,4.0,13.0,61,0.00,,,0.00,Wunderground v.1.13,2013-03-13 13:22:00,
2013-03-13 09:28:00,58.9,44.6,30.17,North,5,4.0,13.0,59,0.00,,,0.00,Wunderground v.1.13,2013-03-13 13:28:00,
2013-03-13 09:34:00,59.0,44.2,30.17,NNE,24,4.0,13.0,58,0.00,,,0.00,Wunderground v.1.13,2013-03-13 13:34:00,
2013-03-13 09:40:00,59.1,44.3,30.17,NNE,15,4.0,13.0,58,0.00,,,0.00,Wunderground v.1.13,2013-03-13 13:40:00,
2013-03-13 09:46:00,59.3,44.1,30.17,NNE,17,3.0,13.0,57,0.00,,,0.00,Wunderground v.1.13,2013-03-13 13:46:00,
2013-03-13 09:52:00,59.5,43.8,30.17,NNW,347,4.0,13.0,56,0.00,,,0.00,Wunderground v.1.13,2013-03-13 13:52:00,
2013-03-13 09:58:00,59.6,43.9,30.17,North,11,4.0,13.0,56,0.00,,,0.00,Wunderground v.1.13,2013-03-13 13:58:00,
2013-03-13 10:04:00,60.0,43.3,30.17,NNE,17,4.0,13.0,54,0.00,,,0.00,Wunderground v.1.13,2013-03-13 14:04:00,
2013-03-13 10:10:00,60.2,43.0,30.18,NE,44,4.0,6.0,53,0.00,,,0.00,Wunderground v.1.13,2013-03-13 14:10:00,
2013-03-13 10:16:00,60.4,42.7,30.18,North,10,4.0,15.0,52,0.00,,,0.00,Wunderground v.1.13,2013-03-13 14:16:00,
2013-03-13 10:22:00,61.0,44.7,30.18,NE,37,2.0,15.0,55,0.00,,,0.00,Wunderground v.1.13,2013-03-13 14:22:00,
2013-03-13 10:28:00,61.3,43.5,30.19,NNE,18,2.0,15.0,52,0.00,,,0.00,Wunderground v.1.13,2013-03-13 14:28:00,
2013-03-13 10:34:00,61.5,42.7,30.19,North,350,4.0,15.0,50,0.00,,,0.00,Wunderground v.1.13,2013-03-13 14:34:00,
2013-03-13 10:40:00,61.7,42.9,30.19,NE,50,4.0,15.0,50,0.00,,,0.00,Wunderground v.1.13,2013-03-13 14:40:00,
2013-03-13 10:46:00,62.1,42.7,30.19,NE,44,3.0,15.0,49,0.00,,,0.00,Wunderground v.1.13,2013-03-13 14:46:00,
2013-03-13 10:52:00,62.5,43.6,30.19,NNE,22,2.0,15.0,50,0.00,,,0.00,Wunderground v.1.13,2013-03-13 14:52:00,
2013-03-13 10:58:00,63.0,44.6,30.19,NNE,15,2.0,15.0,51,0.00,,,0.00,Wunderground v.1.13,2013-03-13 14:58:00,
2013-03-13 11:04:00,63.4,44.4,30.19,NNE,26,2.0,15.0,50,0.00,,,0.00,Wunderground v.1.13,2013-03-13 15:04:00,
2013-03-13 11:10:00,63.6,43.5,30.19,NE,52,2.0,3.0,48,0.00,,,0.00,Wunderground v.1.13,2013-03-13 15:10:00,
2013-03-13 11:16:00,63.7,43.6,30.19,NNE,15,3.0,4.0,48,0.00,,,0.00,Wunderground v.1.13,2013-03-13 15:16:00,
2013-03-13 11:22:00,64.0,42.2,30.19,ENE,65,3.0,11.0,45,0.00,,,0.00,Wunderground v.1.13,2013-03-13 15:22:00,
2013-03-13 11:28:00,64.3,43.1,30.19,NNW,340,3.0,11.0,46,0.00,,,0.00,Wunderground v.1.13,2013-03-13 15:28:00,
2013-03-13 11:34:00,64.7,42.9,30.19,NNE,18,2.0,11.0,45,0.00,,,0.00,Wunderground v.1.13,2013-03-13 15:34:00,
2013-03-13 11:40:00,65.2,42.1,30.19,NE,34,2.0,11.0,43,0.00,,,0.00,Wunderground v.1.13,2013-03-13 15:40:00,
2013-03-13 11:48:00,65.1,42.0,30.19,NE,48,3.0,11.0,43,0.00,,,0.00,Wunderground v.1.13,2013-03-13 15:48:00,
2013-03-13 11:54:00,65.4,42.3,30.19,North,350,3.0,3.0,43,0.00,,,0.00,Wunderground v.1.13,2013-03-13 15:54:00,
2013-03-13 12:00:00,66.1,41.7,30.19,ENE,65,3.0,3.0,41,0.00,,,0.00,Wunderground v.1.13,2013-03-13 16:00:00,
2013-03-13 12:06:00,66.5,40.8,30.19,NNW,331,3.0,3.0,39,0.00,,,0.00,Wunderground v.1.13,2013-03-13 16:06:00,
2013-03-13 12:12:00,66.9,39.1,30.19,NNW,343,3.0,3.0,36,0.00,,,0.00,Wunderground v.1.13,2013-03-13 16:12:00,
2013-03-13 12:18:00,67.2,38.6,30.19,North,350,3.0,10.0,35,0.00,,,0.00,Wunderground v.1.13,2013-03-13 16:18:00,
2013-03-13 12:24:00,67.5,38.9,30.20,NW,324,3.0,10.0,35,0.00,,,0.00,Wunderground v.1.13,2013-03-13 16:24:00,
2013-03-13 12:30:00,67.4,36.5,30.20,North,360,5.0,11.0,32,0.00,,,0.00,Wunderground v.1.13,2013-03-13 16:30:00,
2013-03-13 12:36:00,67.2,37.9,30.19,NNW,348,5.0,5.0,34,0.00,,,0.00,Wunderground v.1.13,2013-03-13 16:36:00,
2013-03-13 12:42:00,67.4,36.5,30.19,North,355,5.0,11.0,32,0.00,,,0.00,Wunderground v.1.13,2013-03-13 16:42:00,
2013-03-13 12:48:00,67.4,36.5,30.19,NNW,336,5.0,5.0,32,0.00,,,0.00,Wunderground v.1.13,2013-03-13 16:48:00,
2013-03-13 12:54:00,67.5,34.1,30.20,NW,326,4.0,10.0,29,0.00,,,0.00,Wunderground v.1.13,2013-03-13 16:54:00,
2013-03-13 13:00:00,67.5,35.8,30.19,NNW,333,5.0,10.0,31,0.00,,,0.00,Wunderground v.1.13,2013-03-13 17:00:00,
2013-03-13 13:06:00,67.7,35.1,30.19,North,350,4.0,4.0,30,0.00,,,0.00,Wunderground v.1.13,2013-03-13 17:06:00,
2013-03-13 13:12:00,67.9,36.9,30.19,NW,315,4.0,4.0,32,0.00,,,0.00,Wunderground v.1.13,2013-03-13 17:12:00,
2013-03-13 13:18:00,67.5,37.4,30.19,NW,315,6.0,16.0,33,0.00,,,0.00,Wunderground v.1.13,2013-03-13 17:18:00,
2013-03-13 13:24:00,67.6,37.5,30.19,NW,321,6.0,6.0,33,0.00,,,0.00,Wunderground v.1.13,2013-03-13 17:24:00,
2013-03-13 13:30:00,67.6,38.2,30.18,North,355,6.0,16.0,34,0.00,,,0.00,Wunderground v.1.13,2013-03-13 17:30:00,
2013-03-13 13:38:00,67.5,41.7,30.18,NNW,330,5.0,16.0,39,0.00,,,0.00,Wunderground v.1.13,2013-03-13 17:38:00,
2013-03-13 13:44:00,67.4,41.6,30.18,NW,316,5.0,6.0,39,0.00,,,0.00,Wunderground v.1.13,2013-03-13 17:44:00,
2013-03-13 13:50:00,67.0,43.1,30.18,WNW,299,6.0,16.0,42,0.00,,,0.00,Wunderground v.1.13,2013-03-13 17:50:00,
2013-03-13 13:58:00,67.5,44.8,30.17,NNW,327,2.0,16.0,44,0.00,,,0.00,Wunderground v.1.13,2013-03-13 17:58:00,
2013-03-13 14:04:00,67.3,44.0,30.16,NE,55,3.0,16.0,43,0.00,,,0.00,Wunderground v.1.13,2013-03-13 18:04:00,
2013-03-13 14:10:00,67.3,45.2,30.16,NW,326,3.0,7.0,45,0.00,,,0.00,Wunderground v.1.13,2013-03-13 18:10:00,
2013-03-13 14:16:00,67.2,45.1,30.16,NNW,338,3.0,16.0,45,0.00,,,0.00,Wunderground v.1.13,2013-03-13 18:16:00,
2013-03-13 14:22:00,67.2,45.1,30.16,NNW,332,4.0,16.0,45,0.00,,,0.00,Wunderground v.1.13,2013-03-13 18:22:00,
2013-03-13 14:28:00,67.5,45.4,30.16,NNW,330,3.0,16.0,45,0.00,,,0.00,Wunderground v.1.13,2013-03-13 18:28:00,
2013-03-13 14:34:00,68.1,45.9,30.15,NW,325,2.0,4.0,45,0.00,,,0.00,Wunderground v.1.13,2013-03-13 18:34:00,
2013-03-13 14:40:00,68.0,45.3,30.15,NW,316,3.0,16.0,44,0.00,,,0.00,Wunderground v.1.13,2013-03-13 18:40:00,
2013-03-13 14:46:00,68.3,44.9,30.15,NW,319,2.0,16.0,43,0.00,,,0.00,Wunderground v.1.13,2013-03-13 18:46:00,
2013-03-13 14:52:00,68.4,45.6,30.15,North,355,2.0,16.0,44,0.00,,,0.00,Wunderground v.1.13,2013-03-13 18:52:00,
2013-03-13 14:58:00,68.3,44.9,30.15,North,9,2.0,16.0,43,0.00,,,0.00,Wunderground v.1.13,2013-03-13 18:58:00,
2013-03-13 15:04:00,68.1,45.4,30.15,NNW,332,3.0,16.0,44,0.00,,,0.00,Wunderground v.1.13,2013-03-13 19:04:00,
2013-03-13 15:10:00,67.9,44.6,30.15,NW,313,3.0,3.0,43,0.00,,,0.00,Wunderground v.1.13,2013-03-13 19:10:00,
2013-03-13 15:16:00,67.6,45.5,30.14,NNW,346,3.0,11.0,45,0.00,,,0.00,Wunderground v.1.13,2013-03-13 19:16:00,
2013-03-13 15:22:00,68.2,45.4,30.14,NNW,329,3.0,11.0,44,0.00,,,0.00,Wunderground v.1.13,2013-03-13 19:22:00,
2013-03-13 15:28:00,68.1,45.4,30.14,WNW,294,3.0,11.0,44,0.00,,,0.00,Wunderground v.1.13,2013-03-13 19:28:00,
2013-03-13 15:34:00,68.1,45.9,30.14,NW,318,2.0,11.0,45,0.00,,,0.00,Wunderground v.1.13,2013-03-13 19:34:00,
2013-03-13 15:40:00,68.3,46.7,30.13,NNW,340,1.0,11.0,46,0.00,,,0.00,Wunderground v.1.13,2013-03-13 19:40:00,
2013-03-13 15:46:00,68.1,45.4,30.13,NW,315,2.0,11.0,44,0.00,,,0.00,Wunderground v.1.13,2013-03-13 19:46:00,
2013-03-13 15:52:00,67.6,46.1,30.13,NNW,327,3.0,11.0,46,0.00,,,0.00,Wunderground v.1.13,2013-03-13 19:52:00,
2013-03-13 15:58:00,67.4,46.5,30.13,NW,309,2.0,11.0,47,0.00,,,0.00,Wunderground v.1.13,2013-03-13 19:58:00,
2013-03-13 16:04:00,67.1,47.3,30.13,NW,307,2.0,11.0,49,0.00,,,0.00,Wunderground v.1.13,2013-03-13 20:04:00,
2013-03-13 16:10:00,66.7,47.5,30.13,NNW,328,3.0,3.0,50,0.00,,,0.00,Wunderground v.1.13,2013-03-13 20:10:00,
2013-03-13 16:16:00,66.5,46.2,30.13,NNW,330,2.0,12.0,48,0.00,,,0.00,Wunderground v.1.13,2013-03-13 20:16:00,
2013-03-13 16:22:00,66.7,47.5,30.13,WNW,289,1.0,12.0,50,0.00,,,0.00,Wunderground v.1.13,2013-03-13 20:22:00,
2013-03-13 16:28:00,66.2,47.5,30.13,NW,307,2.0,12.0,51,0.00,,,0.00,Wunderground v.1.13,2013-03-13 20:28:00,
2013-03-13 16:34:00,66.2,47.0,30.13,North,350,2.0,12.0,50,0.00,,,0.00,Wunderground v.1.13,2013-03-13 20:34:00,
2013-03-13 16:40:00,66.2,47.5,30.13,WNW,296,2.0,12.0,51,0.00,,,0.00,Wunderground v.1.13,2013-03-13 20:40:00,
2013-03-13 16:48:00,66.3,47.6,30.12,NNW,331,2.0,2.0,51,0.00,,,0.00,Wunderground v.1.13,2013-03-13 20:48:00,
2013-03-13 16:54:00,65.9,47.8,30.12,NNW,328,2.0,2.0,52,0.00,,,0.00,Wunderground v.1.13,2013-03-13 20:54:00,
2013-03-13 17:00:00,65.9,47.8,30.12,NW,313,1.0,1.0,52,0.00,,,0.00,Wunderground v.1.13,2013-03-13 21:00:00,
2013-03-13 17:06:00,66.3,47.6,30.12,NW,318,1.0,5.0,51,0.00,,,0.00,Wunderground v.1.13,2013-03-13 21:06:00,
2013-03-13 17:12:00,66.4,46.7,30.11,NNW,327,1.0,1.0,49,0.00,,,0.00,Wunderground v.1.13,2013-03-13 21:12:00,
2013-03-13 17:18:00,66.4,43.2,30.11,NW,313,1.0,1.0,43,0.00,,,0.00,Wunderground v.1.13,2013-03-13 21:18:00,
2013-03-13 17:24:00,66.3,46.0,30.11,NW,317,3.0,3.0,48,0.00,,,0.00,Wunderground v.1.13,2013-03-13 21:24:00,
2013-03-13 17:30:00,66.3,45.5,30.12,NW,307,3.0,11.0,47,0.00,,,0.00,Wunderground v.1.13,2013-03-13 21:30:00,
2013-03-13 17:38:00,65.7,46.5,30.12,NW,317,3.0,11.0,50,0.00,,,0.00,Wunderground v.1.13,2013-03-13 21:38:00,
2013-03-13 17:44:00,65.9,43.9,30.11,NNW,334,2.0,11.0,45,0.00,,,0.00,Wunderground v.1.13,2013-03-13 21:44:00,
2013-03-13 17:50:00,65.3,45.6,30.11,NW,318,3.0,5.0,49,0.00,,,0.00,Wunderground v.1.13,2013-03-13 21:50:00,
2013-03-13 17:56:00,64.6,45.0,30.11,NNW,327,5.0,11.0,49,0.00,,,0.00,Wunderground v.1.13,2013-03-13 21:56:00,
2013-03-13 18:02:00,64.4,44.8,30.11,WNW,302,3.0,11.0,49,0.00,,,0.00,Wunderground v.1.13,2013-03-13 22:02:00,
2013-03-13 18:08:00,64.3,45.3,30.11,NW,323,2.0,3.0,50,0.00,,,0.00,Wunderground v.1.13,2013-03-13 22:08:00,
2013-03-13 18:14:00,64.1,44.5,30.12,NW,314,3.0,7.0,49,0.00,,,0.00,Wunderground v.1.13,2013-03-13 22:14:00,
2013-03-13 18:20:00,64.0,44.4,30.11,NW,318,3.0,5.0,49,0.00,,,0.00,Wunderground v.1.13,2013-03-13 22:20:00,
2013-03-13 18:28:00,63.9,44.4,30.12,West,277,3.0,15.0,49,0.00,,,0.00,Wunderground v.1.13,2013-03-13 22:28:00,
2013-03-13 18:34:00,63.7,43.6,30.12,WNW,291,3.0,15.0,48,0.00,,,0.00,Wunderground v.1.13,2013-03-13 22:34:00,
2013-03-13 18:40:00,63.7,43.6,30.12,NW,315,3.0,15.0,48,0.00,,,0.00,Wunderground v.1.13,2013-03-13 22:40:00,
2013-03-13 18:46:00,63.3,42.7,30.12,NW,321,3.0,15.0,47,0.00,,,0.00,Wunderground v.1.13,2013-03-13 22:46:00,
2013-03-13 18:52:00,63.1,42.5,30.12,NW,318,3.0,15.0,47,0.00,,,0.00,Wunderground v.1.13,2013-03-13 22:52:00,
2013-03-13 18:58:00,62.9,43.4,30.12,NW,317,3.0,15.0,49,0.00,,,0.00,Wunderground v.1.13,2013-03-13 22:58:00,
2013-03-13 19:04:00,62.6,42.6,30.13,NW,324,3.0,15.0,48,0.00,,,0.00,Wunderground v.1.13,2013-03-13 23:04:00,
2013-03-13 19:10:00,62.4,43.0,30.12,NNW,342,3.0,3.0,49,0.00,,,0.00,Wunderground v.1.13,2013-03-13 23:10:00,
2013-03-13 19:16:00,61.9,42.5,30.13,WNW,294,2.0,12.0,49,0.00,,,0.00,Wunderground v.1.13,2013-03-13 23:16:00,
2013-03-13 19:22:00,61.6,42.8,30.13,NW,319,2.0,12.0,50,0.00,,,0.00,Wunderground v.1.13,2013-03-13 23:22:00,
2013-03-13 19:28:00,61.3,43.0,30.13,NW,318,2.0,12.0,51,0.00,,,0.00,Wunderground v.1.13,2013-03-13 23:28:00,
2013-03-13 19:34:00,61.0,43.7,30.13,NW,317,1.0,12.0,53,0.00,,,0.00,Wunderground v.1.13,2013-03-13 23:34:00,
2013-03-13 19:40:00,60.7,44.4,30.13,NW,323,1.0,12.0,55,0.00,,,0.00,Wunderground v.1.13,2013-03-13 23:40:00,
2013-03-13 19:46:00,60.5,45.2,30.13,WNW,303,1.0,12.0,57,0.00,,,0.00,Wunderground v.1.13,2013-03-13 23:46:00,
2013-03-13 19:52:00,60.3,45.5,30.13,NW,307,1.0,12.0,58,0.00,,,0.00,Wunderground v.1.13,2013-03-13 23:52:00,
2013-03-13 19:58:00,60.1,45.7,30.14,NW,309,0.0,12.0,59,0.00,,,0.00,Wunderground v.1.13,2013-03-13 23:58:00,
2013-03-13 20:04:00,60.0,46.1,30.14,NW,311,0.0,12.0,60,0.00,,,0.00,Wunderground v.1.13,2013-03-14 00:04:00,
2013-03-13 20:10:00,59.9,46.8,30.14,NW,312,0.0,0.0,62,0.00,,,0.00,Wunderground v.1.13,2013-03-14 00:10:00,
2013-03-13 20:16:00,59.8,46.7,30.15,NW,311,0.0,7.0,62,0.00,,,0.00,Wunderground v.1.13,2013-03-14 00:16:00,
2013-03-13 20:22:00,59.6,47.0,30.15,NW,312,0.0,7.0,63,0.00,,,0.00,Wunderground v.1.13,2013-03-14 00:22:00,
2013-03-13 20:28:00,59.5,46.9,30.15,NW,312,0.0,7.0,63,0.00,,,0.00,Wunderground v.1.13,2013-03-14 00:28:00,
2013-03-13 20:34:00,59.3,47.1,30.16,NW,312,0.0,7.0,64,0.00,,,0.00,Wunderground v.1.13,2013-03-14 00:34:00,
2013-03-13 20:40:00,59.2,46.6,30.16,NW,320,0.0,7.0,63,0.00,,,0.00,Wunderground v.1.13,2013-03-14 00:40:00,
2013-03-13 20:46:00,59.2,46.6,30.16,NW,323,0.0,7.0,63,0.00,,,0.00,Wunderground v.1.13,2013-03-14 00:46:00,
2013-03-13 20:52:00,59.2,47.0,30.16,NW,317,0.0,7.0,64,0.00,,,0.00,Wunderground v.1.13,2013-03-14 00:52:00,
2013-03-13 20:58:00,59.3,46.7,30.16,NW,320,1.0,7.0,63,0.00,,,0.00,Wunderground v.1.13,2013-03-14 00:58:00,
2013-03-13 21:04:00,59.3,46.7,30.16,NW,314,1.0,7.0,63,0.00,,,0.00,Wunderground v.1.13,2013-03-14 01:04:00,
2013-03-13 21:10:00,59.3,47.1,30.16,NW,318,0.0,0.0,64,0.00,,,0.00,Wunderground v.1.13,2013-03-14 01:10:00,
2013-03-13 21:16:00,59.3,47.1,30.17,NW,319,0.0,7.0,64,0.00,,,0.00,Wunderground v.1.13,2013-03-14 01:16:00,
2013-03-13 21:22:00,59.1,46.9,30.17,NW,315,0.0,7.0,64,0.00,,,0.00,Wunderground v.1.13,2013-03-14 01:22:00,
2013-03-13 21:28:00,59.2,47.0,30.17,NW,308,1.0,7.0,64,0.00,,,0.00,Wunderground v.1.13,2013-03-14 01:28:00,
2013-03-13 21:34:00,59.2,47.0,30.18,NW,315,1.0,4.0,64,0.00,,,0.00,Wunderground v.1.13,2013-03-14 01:34:00,
2013-03-13 21:40:00,59.2,47.0,30.18,NW,315,2.0,7.0,64,0.00,,,0.00,Wunderground v.1.13,2013-03-14 01:40:00,
2013-03-13 21:46:00,-999.9,-99.9,30.18,North,32767,-999.0,7.0,255,-99.99,,,0.00,Wunderground v.1.13,2013-03-14 01:46:00,
2013-03-13 21:52:00,-999.9,-99.9,30.18,North,32767,-999.0,7.0,255,-99.99,,,0.00,Wunderground v.1.13,2013-03-14 01:52:00,
2013-03-13 21:58:00,-999.9,-99.9,30.18,North,32767,-999.0,7.0,255,-99.99,,,0.00,Wunderground v.1.13,2013-03-14 01:58:00,
2013-03-13 22:04:00,-999.9,-99.9,30.18,North,32767,-999.0,7.0,255,-99.99,,,0.00,Wunderground v.1.13,2013-03-14 02:04:00,
2013-03-13 22:10:00,-999.9,-99.9,30.18,North,32767,-999.0,0.0,255,-99.99,,,0.00,Wunderground v.1.13,2013-03-14 02:10:00,
2013-03-13 22:16:00,-999.9,-99.9,30.19,North,32767,-999.0,0.0,255,-99.99,,,0.00,Wunderground v.1.13,2013-03-14 02:16:00,
2013-03-13 22:22:00,-999.9,-99.9,30.19,North,32767,-999.0,0.0,255,-99.99,,,0.00,Wunderground v.1.13,2013-03-14 02:22:00,
2013-03-13 22:28:00,-999.9,-99.9,30.19,North,32767,-999.0,0.0,255,-99.99,,,0.00,Wunderground v.1.13,2013-03-14 02:28:00,
2013-03-13 22:34:00,-999.9,-99.9,30.19,North,32767,-999.0,0.0,255,-99.99,,,0.00,Wunderground v.1.13,2013-03-14 02:34:00,
2013-03-13 22:40:00,-999.9,-99.9,30.19,North,32767,-999.0,0.0,255,-99.99,,,0.00,Wunderground v.1.13,2013-03-14 02:40:00,
2013-03-13 22:46:00,-999.9,-99.9,30.20,North,32767,-999.0,0.0,255,-99.99,,,0.00,Wunderground v.1.13,2013-03-14 02:46:00,
2013-03-13 22:52:00,-999.9,-99.9,30.20,North,32767,-999.0,0.0,255,-99.99,,,0.00,Wunderground v.1.13,2013-03-14 02:52:00,
2013-03-13 22:58:00,-999.9,-99.9,30.20,North,32767,-999.0,0.0,255,-99.99,,,0.00,Wunderground v.1.13,2013-03-14 02:58:00,
2013-03-13 23:04:00,-999.9,-99.9,30.20,North,32767,-999.0,0.0,255,-99.99,,,0.00,Wunderground v.1.13,2013-03-14 03:04:00,
2013-03-13 23:10:00,-999.9,-99.9,30.20,North,32767,-999.0,0.0,255,-99.99,,,0.00,Wunderground v.1.13,2013-03-14 03:10:00,
2013-03-13 23:16:00,-999.9,-99.9,30.20,North,32767,-999.0,0.0,255,-99.99,,,0.00,Wunderground v.1.13,2013-03-14 03:16:00,
2013-03-13 23:22:00,-999.9,-99.9,30.20,North,32767,-999.0,0.0,255,-99.99,,,0.00,Wunderground v.1.13,2013-03-14 03:22:00,
2013-03-13 23:28:00,-999.9,-99.9,30.20,North,32767,-999.0,0.0,255,-99.99,,,0.00,Wunderground v.1.13,2013-03-14 03:28:00,
2013-03-13 23:34:00,-999.9,-99.9,30.20,North,32767,-999.0,0.0,255,-99.99,,,0.00,Wunderground v.1.13,2013-03-14 03:34:00,
2013-03-13 23:40:00,-999.9,-99.9,30.20,North,32767,-999.0,0.0,255,-99.99,,,0.00,Wunderground v.1.13,2013-03-14 03:40:00,
2013-03-13 23:46:00,-999.9,-99.9,30.20,North,32767,-999.0,0.0,255,-99.99,,,0.00,Wunderground v.1.13,2013-03-14 03:46:00,
2013-03-13 23:52:00,-999.9,-99.9,30.20,North,32767,-999.0,0.0,255,-99.99,,,0.00,Wunderground v.1.13,2013-03-14 03:52:00,
2013-03-13 23:58:00,-999.9,-99.9,30.20,North,32767,-999.0,0.0,255,-99.99,,,0.00,Wunderground v.1.13,2013-03-14 03:58:00,